﻿測定場所 (Monitoring sites),日付 (Measurement date),時間 (Measurement time),線量率 最大値 (max) μGy/h,線量率 最小値 (min) μGy/h,線量率 平均値 (average) μGy/h,
大田 (Ota),2020-01-12,23:01～24:00,0.0357,0.0303,0.0336,
大田 (Ota),2020-01-12,22:01～23:00,0.0354,0.0308,0.0336,
大田 (Ota),2020-01-12,21:01～22:00,0.0351,0.0317,0.0333,
大田 (Ota),2020-01-12,20:01～21:00,0.0361,0.0316,0.0337,
大田 (Ota),2020-01-12,19:01～20:00,0.0354,0.0318,0.0337,
大田 (Ota),2020-01-12,18:01～19:00,0.0367,0.0316,0.0340,
大田 (Ota),2020-01-12,17:01～18:00,0.0367,0.0319,0.0344,
大田 (Ota),2020-01-12,16:01～17:00,0.0367,0.0328,0.0348,
大田 (Ota),2020-01-12,15:01～16:00,0.0365,0.0325,0.0345,
大田 (Ota),2020-01-12,14:01～15:00,0.0364,0.0317,0.0343,
大田 (Ota),2020-01-12,13:01～14:00,0.0364,0.0319,0.0341,
大田 (Ota),2020-01-12,12:01～13:00,0.0364,0.0321,0.0341,
大田 (Ota),2020-01-12,11:01～12:00,0.0363,0.0318,0.0341,
大田 (Ota),2020-01-12,10:01～11:00,0.0363,0.0318,0.0341,
大田 (Ota),2020-01-12,09:01～10:00,0.0366,0.0321,0.0340,
大田 (Ota),2020-01-12,08:01～09:00,0.0357,0.0324,0.0342,
大田 (Ota),2020-01-12,07:01～08:00,0.0366,0.0321,0.0345,
大田 (Ota),2020-01-12,06:01～07:00,0.0361,0.0321,0.0343,
大田 (Ota),2020-01-12,05:01～06:00,0.0353,0.0315,0.0339,
大田 (Ota),2020-01-12,04:01～05:00,0.0360,0.0319,0.0341,
大田 (Ota),2020-01-12,03:01～04:00,0.0368,0.0309,0.0339,
大田 (Ota),2020-01-12,02:01～03:00,0.0359,0.0323,0.0340,
大田 (Ota),2020-01-12,01:01～02:00,0.0358,0.0317,0.0337,
大田 (Ota),2020-01-12,00:01～01:00,0.0363,0.0313,0.0340,
大田 (Ota),2020-01-11,23:01～24:00,0.0357,0.0320,0.0337,
大田 (Ota),2020-01-11,22:01～23:00,0.0356,0.0325,0.0338,
大田 (Ota),2020-01-11,21:01～22:00,0.0365,0.0314,0.0340,
大田 (Ota),2020-01-11,20:01～21:00,0.0366,0.0318,0.0339,
大田 (Ota),2020-01-11,19:01～20:00,0.0358,0.0315,0.0336,
大田 (Ota),2020-01-11,18:01～19:00,0.0366,0.0316,0.0339,
大田 (Ota),2020-01-11,17:01～18:00,0.0352,0.0316,0.0336,
大田 (Ota),2020-01-11,16:01～17:00,0.0359,0.0312,0.0337,
大田 (Ota),2020-01-11,15:01～16:00,0.0356,0.0315,0.0338,
大田 (Ota),2020-01-11,14:01～15:00,0.0356,0.0313,0.0338,
大田 (Ota),2020-01-11,13:01～14:00,0.0363,0.0311,0.0338,
大田 (Ota),2020-01-11,12:01～13:00,0.0359,0.0315,0.0337,
大田 (Ota),2020-01-11,11:01～12:00,0.0366,0.0313,0.0338,
大田 (Ota),2020-01-11,10:01～11:00,0.0357,0.0311,0.0334,
大田 (Ota),2020-01-11,09:01～10:00,0.0359,0.0319,0.0335,
大田 (Ota),2020-01-11,08:01～09:00,0.0352,0.0318,0.0336,
大田 (Ota),2020-01-11,07:01～08:00,0.0352,0.0318,0.0336,
大田 (Ota),2020-01-11,06:01～07:00,0.0358,0.0314,0.0334,
大田 (Ota),2020-01-11,05:01～06:00,0.0353,0.0303,0.0333,
大田 (Ota),2020-01-11,04:01～05:00,0.0354,0.0312,0.0331,
大田 (Ota),2020-01-11,03:01～04:00,0.0359,0.0314,0.0334,
大田 (Ota),2020-01-11,02:01～03:00,0.0352,0.0312,0.0334,
大田 (Ota),2020-01-11,01:01～02:00,0.0356,0.0316,0.0336,
大田 (Ota),2020-01-11,00:01～01:00,0.0351,0.0314,0.0335,
大田 (Ota),2020-01-10,23:01～24:00,0.0353,0.0317,0.0333,
大田 (Ota),2020-01-10,22:01～23:00,0.0349,0.0312,0.0332,
大田 (Ota),2020-01-10,21:01～22:00,0.0347,0.0316,0.0333,
大田 (Ota),2020-01-10,20:01～21:00,0.0351,0.0316,0.0333,
大田 (Ota),2020-01-10,19:01～20:00,0.0352,0.0320,0.0333,
大田 (Ota),2020-01-10,18:01～19:00,0.0347,0.0304,0.0331,
大田 (Ota),2020-01-10,17:01～18:00,0.0355,0.0315,0.0332,
大田 (Ota),2020-01-10,16:01～17:00,0.0357,0.0315,0.0335,
大田 (Ota),2020-01-10,15:01～16:00,0.0362,0.0321,0.0338,
大田 (Ota),2020-01-10,14:01～15:00,0.0351,0.0320,0.0334,
大田 (Ota),2020-01-10,13:01～14:00,0.0367,0.0312,0.0338,
大田 (Ota),2020-01-10,12:01～13:00,0.0349,0.0319,0.0336,
大田 (Ota),2020-01-10,11:01～12:00,0.0360,0.0318,0.0335,
大田 (Ota),2020-01-10,10:01～11:00,0.0369,0.0320,0.0338,
大田 (Ota),2020-01-10,09:01～10:00,0.0364,0.0318,0.0339,
大田 (Ota),2020-01-10,08:01～09:00,0.0348,0.0314,0.0331,
大田 (Ota),2020-01-10,07:01～08:00,0.0351,0.0321,0.0336,
大田 (Ota),2020-01-10,06:01～07:00,0.0349,0.0311,0.0333,
大田 (Ota),2020-01-10,05:01～06:00,0.0355,0.0316,0.0336,
大田 (Ota),2020-01-10,04:01～05:00,0.0359,0.0315,0.0334,
大田 (Ota),2020-01-10,03:01～04:00,0.0351,0.0315,0.0333,
大田 (Ota),2020-01-10,02:01～03:00,0.0352,0.0312,0.0334,
大田 (Ota),2020-01-10,01:01～02:00,0.0360,0.0313,0.0336,
大田 (Ota),2020-01-10,00:01～01:00,0.0354,0.0317,0.0333,
大田 (Ota),2020-01-09,23:01～24:00,0.0356,0.0313,0.0335,
大田 (Ota),2020-01-09,22:01～23:00,0.0362,0.0309,0.0333,
大田 (Ota),2020-01-09,21:01～22:00,0.0356,0.0306,0.0333,
大田 (Ota),2020-01-09,20:01～21:00,0.0353,0.0311,0.0333,
大田 (Ota),2020-01-09,19:01～20:00,0.0350,0.0313,0.0332,
大田 (Ota),2020-01-09,18:01～19:00,0.0347,0.0311,0.0330,
大田 (Ota),2020-01-09,17:01～18:00,0.0351,0.0314,0.0332,
大田 (Ota),2020-01-09,16:01～17:00,0.0350,0.0318,0.0332,
大田 (Ota),2020-01-09,15:01～16:00,0.0349,0.0312,0.0332,
大田 (Ota),2020-01-09,14:01～15:00,0.0349,0.0309,0.0335,
大田 (Ota),2020-01-09,13:01～14:00,0.0355,0.0312,0.0333,
大田 (Ota),2020-01-09,12:01～13:00,0.0355,0.0315,0.0333,
大田 (Ota),2020-01-09,11:01～12:00,0.0353,0.0317,0.0334,
大田 (Ota),2020-01-09,10:01～11:00,0.0351,0.0314,0.0331,
大田 (Ota),2020-01-09,09:01～10:00,0.0352,0.0314,0.0333,
大田 (Ota),2020-01-09,08:01～09:00,0.0361,0.0318,0.0336,
大田 (Ota),2020-01-09,07:01～08:00,0.0352,0.0302,0.0330,
大田 (Ota),2020-01-09,06:01～07:00,0.0361,0.0305,0.0333,
大田 (Ota),2020-01-09,05:01～06:00,0.0360,0.0314,0.0333,
大田 (Ota),2020-01-09,04:01～05:00,0.0355,0.0305,0.0334,
大田 (Ota),2020-01-09,03:01～04:00,0.0352,0.0312,0.0332,
大田 (Ota),2020-01-09,02:01～03:00,0.0358,0.0316,0.0339,
大田 (Ota),2020-01-09,01:01～02:00,0.0364,0.0310,0.0338,
大田 (Ota),2020-01-09,00:01～01:00,0.0359,0.0312,0.0337,
大田 (Ota),2020-01-08,23:01～24:00,0.0360,0.0311,0.0337,
大田 (Ota),2020-01-08,22:01～23:00,0.0354,0.0323,0.0340,
大田 (Ota),2020-01-08,21:01～22:00,0.0358,0.0315,0.0337,
大田 (Ota),2020-01-08,20:01～21:00,0.0356,0.0320,0.0339,
大田 (Ota),2020-01-08,19:01～20:00,0.0366,0.0320,0.0337,
大田 (Ota),2020-01-08,18:01～19:00,0.0362,0.0321,0.0340,
大田 (Ota),2020-01-08,17:01～18:00,0.0350,0.0309,0.0335,
大田 (Ota),2020-01-08,16:01～17:00,0.0354,0.0312,0.0337,
大田 (Ota),2020-01-08,15:01～16:00,0.0362,0.0318,0.0341,
大田 (Ota),2020-01-08,14:01～15:00,0.0369,0.0323,0.0348,
大田 (Ota),2020-01-08,13:01～14:00,0.0442,0.0345,0.0387,
大田 (Ota),2020-01-08,12:01～13:00,0.0530,0.0422,0.0470,
大田 (Ota),2020-01-08,11:01～12:00,0.0506,0.0390,0.0435,
大田 (Ota),2020-01-08,10:01～11:00,0.0434,0.0358,0.0390,
大田 (Ota),2020-01-08,09:01～10:00,0.0381,0.0331,0.0351,
大田 (Ota),2020-01-08,08:01～09:00,0.0359,0.0317,0.0338,
大田 (Ota),2020-01-08,07:01～08:00,0.0364,0.0320,0.0344,
大田 (Ota),2020-01-08,06:01～07:00,0.0379,0.0333,0.0351,
大田 (Ota),2020-01-08,05:01～06:00,0.0402,0.0348,0.0370,
大田 (Ota),2020-01-08,04:01～05:00,0.0401,0.0342,0.0362,
大田 (Ota),2020-01-08,03:01～04:00,0.0372,0.0333,0.0356,
大田 (Ota),2020-01-08,02:01～03:00,0.0370,0.0330,0.0352,
大田 (Ota),2020-01-08,01:01～02:00,0.0366,0.0327,0.0347,
大田 (Ota),2020-01-08,00:01～01:00,0.0413,0.0342,0.0372,
大田 (Ota),2020-01-07,23:01～24:00,0.0413,0.0358,0.0382,
大田 (Ota),2020-01-07,22:01～23:00,0.0420,0.0355,0.0378,
大田 (Ota),2020-01-07,21:01～22:00,0.0421,0.0355,0.0383,
大田 (Ota),2020-01-07,20:01～21:00,0.0418,0.0367,0.0392,
大田 (Ota),2020-01-07,19:01～20:00,0.0448,0.0359,0.0393,
大田 (Ota),2020-01-07,18:01～19:00,0.0461,0.0365,0.0403,
大田 (Ota),2020-01-07,17:01～18:00,0.0452,0.0367,0.0412,
大田 (Ota),2020-01-07,16:01～17:00,0.0413,0.0360,0.0380,
大田 (Ota),2020-01-07,15:01～16:00,0.0439,0.0357,0.0392,
大田 (Ota),2020-01-07,14:01～15:00,0.0462,0.0370,0.0419,
大田 (Ota),2020-01-07,13:01～14:00,0.0471,0.0316,0.0383,
大田 (Ota),2020-01-07,12:01～13:00,0.0360,0.0321,0.0343,
大田 (Ota),2020-01-07,11:01～12:00,0.0361,0.0324,0.0342,
大田 (Ota),2020-01-07,10:01～11:00,0.0355,0.0322,0.0340,
大田 (Ota),2020-01-07,09:01～10:00,0.0360,0.0316,0.0340,
大田 (Ota),2020-01-07,08:01～09:00,0.0355,0.0317,0.0338,
大田 (Ota),2020-01-07,07:01～08:00,0.0361,0.0320,0.0338,
大田 (Ota),2020-01-07,06:01～07:00,0.0357,0.0318,0.0338,
大田 (Ota),2020-01-07,05:01～06:00,0.0362,0.0321,0.0338,
大田 (Ota),2020-01-07,04:01～05:00,0.0366,0.0324,0.0342,
大田 (Ota),2020-01-07,03:01～04:00,0.0368,0.0315,0.0339,
大田 (Ota),2020-01-07,02:01～03:00,0.0361,0.0313,0.0340,
大田 (Ota),2020-01-07,01:01～02:00,0.0359,0.0321,0.0339,
大田 (Ota),2020-01-07,00:01～01:00,0.0367,0.0320,0.0339,
大田 (Ota),2020-01-06,23:01～24:00,0.0355,0.0312,0.0335,
大田 (Ota),2020-01-06,22:01～23:00,0.0353,0.0319,0.0336,
大田 (Ota),2020-01-06,21:01～22:00,0.0357,0.0319,0.0338,
大田 (Ota),2020-01-06,20:01～21:00,0.0364,0.0311,0.0342,
大田 (Ota),2020-01-06,19:01～20:00,0.0362,0.0317,0.0340,
大田 (Ota),2020-01-06,18:01～19:00,0.0365,0.0319,0.0337,
大田 (Ota),2020-01-06,17:01～18:00,0.0357,0.0312,0.0341,
大田 (Ota),2020-01-06,16:01～17:00,0.0362,0.0316,0.0340,
大田 (Ota),2020-01-06,15:01～16:00,0.0360,0.0313,0.0337,
大田 (Ota),2020-01-06,14:01～15:00,0.0362,0.0318,0.0339,
大田 (Ota),2020-01-06,13:01～14:00,0.0357,0.0320,0.0338,
大田 (Ota),2020-01-06,12:01～13:00,0.0357,0.0314,0.0337,
大田 (Ota),2020-01-06,11:01～12:00,0.0354,0.0319,0.0338,
大田 (Ota),2020-01-06,10:01～11:00,0.0357,0.0319,0.0339,
大田 (Ota),2020-01-06,09:01～10:00,0.0362,0.0322,0.0339,
大田 (Ota),2020-01-06,08:01～09:00,0.0359,0.0315,0.0338,
大田 (Ota),2020-01-06,07:01～08:00,0.0356,0.0315,0.0338,
大田 (Ota),2020-01-06,06:01～07:00,0.0359,0.0312,0.0337,
大田 (Ota),2020-01-06,05:01～06:00,0.0356,0.0319,0.0338,
大田 (Ota),2020-01-06,04:01～05:00,0.0355,0.0315,0.0336,
大田 (Ota),2020-01-06,03:01～04:00,0.0360,0.0313,0.0339,
大田 (Ota),2020-01-06,02:01～03:00,0.0358,0.0321,0.0340,
大田 (Ota),2020-01-06,01:01～02:00,0.0361,0.0322,0.0341,
大田 (Ota),2020-01-06,00:01～01:00,0.0361,0.0319,0.0337,
